Wind_Speed
21 19 17 17 17 11 17 8 13 12 13 16 11 11 11 11 10 8 6 8 6 6 8 9 12 12 12 11 13 13 11 14 13 12 11 11 12 11 10 11 12 13 13 15 16 16 15 15 13
20 18 20 18 16 15 17 12 15 13 15 15 11 10 11 8 8 6 5 7 6 5 7 7 9 11 11 10 11 11 11 11 12 13 11 12 13 12 12 11 12 12 12 13 13 14 15 14 13
16 19 17 14 15 18 16 15 18 14 13 11 11 10 10 8 6 3 6 6 6 7 7 7 8 10 10 10 10 11 12 11 10 10 11 12 11 13 14 13 12 10 11 11 11 11 12 12 11
17 16 18 12 14 16 20 17 16 14 11 9 10 7 8 7 4 3 4 5 6 7 8 8 7 8 10 10 9 11 11 11 9 8 9 11 11 11 11 12 13 11 11 10 10 11 11 11 9
13 18 7 13 5 9 19 16 11 11 14 14 9 7 9 6 5 6 2 4 5 6 9 9 8 8 9 12 10 10 10 10 9 8 9 9 11 11 11 11 11 11 11 10 9 10 11 8 8
12 15 15 13 13 14 16 12 15 15 16 11 9 5 5 6 6 4 4 3 4 5 8 8 8 7 8 8 7 7 8 8 8 8 8 8 10 11 9 10 10 9 11 10 9 9 9 8 6
6 9 13 14 10 16 5 13 16 17 10 12 12 7 2 5 4 2 5 4 4 4 7 7 7 7 7 6 7 7 5 6 6 8 9 9 9 9 7 9 10 11 11 10 10 9 7 5 5
8 8 14 8 17 9 17 19 16 20 17 11 7 4 4 9 7 4 6 3 5 4 5 7 4 5 5 5 5 6 5 5 4 8 9 9 9 11 13 12 11 10 10 9 7 7 6 5 4
10 12 9 10 11 16 20 16 21 21 8 15 15 7 3 2 7 7 5 2 7 5 5 4 3 3 3 4 4 5 4 4 4 7 10 9 9 10 11 11 10 9 8 8 7 7 5 5 4
9 6 9 6 12 20 12 18 17 19 9 19 21 12 3 1 5 7 5 3 5 6 4 3 2 2 2 3 5 4 3 4 3 8 10 10 7 8 7 7 8 7 8 7 7 7 5 2 2
8 2 7 11 15 16 13 15 19 19 10 11 14 7 6 6 7 6 4 4 2 5 4 2 2 1 3 3 5 5 4 4 4 9 9 11 6 7 5 5 5 5 5 5 7 6 6 3 2
10 7 10 5 10 14 20 16 19 18 20 14 13 11 10 11 10 8 1 3 3 4 5 4 3 2 1 2 5 5 4 3 3 6 6 8 5 6 5 2 1 3 3 4 5 4 5 2 1
9 5 4 3 10 13 8 11 15 16 17 17 18 15 12 11 10 9 5 2 3 4 5 6 6 5 4 4 2 4 5 4 2 4 5 3 4 6 4 2 2 1 2 4 4 2 2 2 3
14 10 9 3 4 6 13 11 14 14 14 14 14 14 13 12 11 7 3 2 2 2 2 6 7 7 7 7 5 3 3 4 4 4 4 4 4 4 2 3 3 1 2 5 5 4 3 5 6
12 4 3 7 5 8 12 7 9 9 13 14 14 12 11 13 13 8 4 3 5 6 6 6 9 8 9 10 8 7 4 4 4 5 6 6 4 4 4 4 4 3 5 7 5 3 5 7 9
6 6 6 7 10 7 9 15 10 6 8 8 9 9 9 12 12 10 7 6 5 7 10 11 13 10 10 11 11 10 8 6 7 6 6 6 6 7 9 8 8 5 5 8 8 8 5 6 10
9 10 14 6 10 8 7 15 21 12 6 3 6 8 10 11 12 12 8 3 3 10 9 15 14 14 13 12 12 11 10 8 8 6 6 6 7 8 10 11 11 9 8 8 9 10 11 14 19
15 10 12 6 5 5 12 9 13 15 11 5 6 5 8 12 13 13 12 6 3 7 8 5 8 13 13 9 10 11 10 9 7 8 8 9 10 11 11 12 11 11 12 12 12 13 13 13 6
17 13 13 9 2 4 5 3 7 11 8 11 13 1 6 9 13 15 11 6 4 3 2 5 3 10 10 12 11 9 9 10 8 7 7 7 7 10 9 9 9 9 11 11 12 9 12 9 7
19 17 16 11 8 6 6 5 1 7 11 7 8 4 4 6 12 16 10 6 5 4 3 3 4 10 11 11 10 11 10 12 12 9 10 9 8 10 8 14 9 8 9 10 10 8 7 7 8
21 21 21 16 12 5 10 7 3 8 10 4 4 4 3 6 10 11 7 6 6 3 1 1 3 4 11 13 13 12 13 14 14 13 13 12 11 11 8 10 11 9 10 10 9 9 10 12 12
22 23 25 20 19 14 11 13 7 14 10 7 9 3 5 2 5 3 5 7 9 6 5 3 2 3 6 9 9 11 13 11 13 13 13 13 12 12 11 10 13 12 12 13 14 14 12 12 12
17 29 28 26 24 18 15 16 13 11 12 13 12 13 6 9 4 0 3 3 8 9 6 5 4 5 6 1 6 6 8 10 12 13 14 12 14 14 13 13 12 14 14 14 13 10 11 14 14
18 27 27 31 29 19 19 19 6 10 14 17 13 4 5 14 8 4 5 5 4 6 6 5 5 6 10 8 3 2 5 7 12 13 13 13 12 13 14 13 11 11 14 13 12 12 15 19 19
23 23 23 27 24 16 20 20 16 10 11 9 10 13 7 7 11 7 7 6 3 1 2 4 5 6 5 6 7 4 4 6 10 11 12 12 13 13 16 14 13 12 10 13 12 15 14 16 17
25 21 18 20 19 17 19 23 14 13 5 6 8 15 5 9 12 9 6 4 2 3 3 4 4 5 6 5 7 9 8 7 8 10 11 14 14 13 13 16 15 14 14 13 16 15 16 17 21
25 22 16 22 19 21 19 26 15 9 4 6 14 18 8 9 11 6 5 9 1 2 3 3 4 5 8 10 7 9 10 10 9 9 11 13 15 13 11 14 16 15 17 17 16 16 15 14 15
26 26 24 20 18 20 23 24 24 19 13 5 9 14 14 10 12 8 2 7 10 4 5 4 7 8 10 12 11 9 8 8 8 7 8 9 14 14 12 13 19 22 11 6 11 12 13 13 13
26 29 27 27 21 19 22 25 23 24 15 13 14 5 6 10 6 11 7 1 6 3 5 5 7 8 11 12 7 6 5 3 4 6 6 9 11 12 12 13 17 7 6 10 9 10 11 12 13
25 21 26 28 23 18 20 20 22 25 22 20 20 16 8 9 17 7 5 5 2 6 8 9 6 7 9 10 8 6 7 4 3 4 5 7 9 10 10 10 10 9 9 11 12 12 12 11 13
Wind_Direction
93 99 96 88 86 83 68 66 64 60 60 75 78 77 66 52 50 52 52 41 61 89 95 87 87 78 71 69 73 72 74 74 79 81 94 97 97 98 96 92 89 90 91 110 90 90 120 116 112
101 102 94 98 95 82 69 80 77 49 57 67 73 71 73 64 51 40 52 65 42 72 92 94 86 78 67 65 74 73 67 71 78 82 90 96 96 97 90 90 93 93 92 92 96 99 104 123 118
90 96 81 71 66 70 73 82 79 54 43 52 57 50 59 55 57 12 79 69 59 69 84 89 94 85 71 62 74 75 68 61 69 76 82 87 88 85 87 89 95 96 97 100 101 100 111 116 129
102 95 80 75 67 83 75 80 76 74 66 63 53 25 42 50 15 27 67 84 72 70 81 83 94 95 81 70 80 84 77 71 71 80 82 89 89 83 85 85 90 96 97 100 102 98 103 117 126
85 71 99 68 71 72 87 88 65 83 77 70 56 6 14 42 11 42 53 77 81 75 79 88 94 103 93 87 86 82 79 80 77 77 84 87 84 77 75 79 85 89 93 91 94 96 97 115 116
69 67 51 78 49 72 75 52 46 60 47 69 72 30 333 351 47 35 44 46 82 75 79 87 98 104 106 100 87 71 80 72 89 92 91 84 86 87 84 81 73 80 89 93 84 84 88 97 89
97 74 45 64 30 49 94 29 29 37 45 58 78 73 328 42 75 52 71 73 86 91 75 79 97 106 116 113 101 89 78 49 95 106 100 95 87 73 81 95 80 95 96 99 94 93 99 104 102
103 120 79 34 28 31 46 39 51 19 30 63 82 80 28 46 69 80 97 115 89 99 89 78 81 109 124 126 108 93 74 51 69 125 112 97 79 71 93 99 87 87 89 88 83 91 94 98 94
144 110 62 62 35 8 22 21 19 12 45 35 5 2 18 348 70 60 79 144 108 106 101 94 78 92 117 142 128 103 72 54 60 143 124 106 94 83 89 93 80 74 69 74 74 77 96 96 105
169 6 54 21 27 19 49 38 26 358 10 14 359 341 71 84 84 75 73 123 132 111 99 111 107 87 102 130 139 130 111 63 55 145 136 124 110 105 110 101 82 66 54 50 58 69 55 57 47
186 66 36 346 10 38 42 47 24 23 2 25 358 22 62 74 99 76 52 92 137 120 121 155 187 140 96 139 152 144 140 91 92 141 146 110 155 122 113 102 83 62 57 34 36 40 74 99 123
281 87 72 339 32 43 52 42 45 46 37 29 30 58 67 79 95 109 63 80 106 158 163 175 191 180 138 155 155 169 159 124 118 150 163 166 170 148 126 114 67 46 60 40 14 360 30 360 170
276 233 136 276 301 42 39 5 18 31 38 47 27 27 45 47 75 94 122 143 189 177 162 186 196 180 188 200 170 174 174 177 175 158 168 190 183 164 151 195 277 360 21 34 23 25 42 321 297
318 308 181 130 75 55 35 23 27 24 20 11 37 25 31 26 27 62 92 141 332 5 186 215 221 203 198 214 206 201 180 195 215 211 193 222 170 200 227 264 279 275 345 14 17 19 352 316 341
347 177 190 94 20 349 41 26 14 32 58 30 37 40 28 31 30 46 81 23 346 320 285 221 225 227 217 216 212 229 205 183 234 237 231 216 226 249 256 288 301 295 298 312 338 356 351 324 320
317 171 147 52 355 346 4 355 46 68 63 26 21 31 17 12 6 35 41 37 330 303 287 261 220 220 220 225 222 223 229 213 227 224 237 230 238 251 269 272 275 275 280 300 315 329 311 304 300
226 180 148 98 62 311 14 51 64 36 12 78 43 37 27 2 350 350 21 30 300 304 308 275 221 219 211 218 217 229 241 230 222 231 256 260 261 252 253 259 264 272 275 277 287 297 301 294 281
226 194 168 117 43 32 81 34 59 60 43 89 67 338 7 17 4 347 349 10 301 309 344 31 216 211 216 223 213 208 222 239 249 250 255 264 272 267 267 254 250 254 266 274 277 286 287 321 306
225 194 180 138 114 304 31 18 12 347 54 70 78 53 28 17 8 357 345 4 24 336 334 65 148 198 207 220 219 208 204 229 239 248 246 249 260 269 262 241 240 257 266 262 280 291 284 279 302
225 206 197 186 204 228 251 203 251 343 340 46 26 354 6 24 8 356 349 354 14 54 78 99 159 198 211 216 219 228 225 234 240 238 247 239 242 255 265 250 248 259 259 266 265 272 274 247 275
234 228 231 216 206 229 268 254 240 295 308 34 18 125 4 356 2 1 8 23 35 68 53 280 240 230 215 220 221 218 222 232 240 241 248 251 251 251 253 250 252 271 263 261 272 256 251 252 261
248 241 228 213 221 213 260 273 274 290 292 301 297 252 241 238 323 46 72 39 41 74 74 23 325 313 249 240 233 229 222 224 235 240 247 258 264 261 262 257 251 285 284 273 268 277 254 256 261
242 236 230 222 223 233 229 261 251 257 266 263 277 326 305 227 220 32 134 60 48 57 47 41 38 22 27 261 241 247 250 235 235 242 244 253 260 263 267 264 270 272 271 277 281 268 244 248 258
249 250 246 240 238 254 226 248 209 239 233 246 272 344 316 205 195 204 221 262 353 47 42 36 31 25 22 33 52 303 271 263 247 245 253 262 263 262 268 267 274 277 284 272 271 267 258 263 260
251 251 257 246 254 255 244 251 197 247 244 264 304 341 286 208 193 195 235 287 298 266 83 46 23 17 16 349 343 314 294 277 262 260 261 266 264 268 268 266 270 277 288 277 276 262 272 265 264
241 246 258 265 249 243 249 242 215 254 283 350 359 329 271 212 201 193 220 256 354 237 125 69 12 341 327 311 296 289 281 274 278 261 258 270 263 263 260 268 270 267 269 275 276 274 268 272 268
229 235 232 251 247 229 229 229 222 239 132 354 336 337 201 200 185 166 226 249 338 14 33 30 10 346 350 338 323 288 274 272 262 265 251 256 258 266 266 267 262 262 260 253 269 272 278 276 264
221 222 226 245 262 256 230 227 226 227 225 257 308 318 186 222 167 177 273 255 257 360 4 353 344 354 357 340 322 311 310 297 275 277 275 266 259 262 261 265 273 273 249 231 249 253 259 256 257
220 227 237 243 247 275 251 239 224 231 253 247 255 238 209 332 273 150 158 240 201 98 13 311 329 3 359 353 342 344 346 316 263 263 269 271 261 254 256 270 282 325 317 290 269 262 261 262 258
214 236 236 237 239 256 271 248 225 234 236 239 246 259 269 291 294 241 205 218 141 67 4 315 310 353 6 8 3 352 20 354 303 295 278 304 272 254 240 246 262 271 266 259 270 266 267 272 265
Height
5894 5895 5896 5897 5901 5900 5898 5890 5895 5896 5896 5895 5895 5894 5894 5894 5893 5896 5893 5892 5891 5891 5891 5891 5890 5890 5892 5893 5893 5894 5895 5896 5897 5897 5896 5896 5896 5897 5897 5897 5898 5899 5899 5899 5899 5899 5900 5900 5901
5898 5898 5898 5899 5900 5899 5900 5898 5897 5898 5897 5896 5896 5895 5894 5894 5893 5894 5895 5893 5893 5893 5892 5892 5891 5891 5893 5894 5895 5896 5897 5898 5898 5898 5899 5900 5900 5900 5900 5900 5901 5902 5902 5902 5902 5902 5901 5902 5903
5902 5901 5901 5900 5898 5899 5900 5902 5900 5902 5900 5898 5896 5897 5897 5897 5896 5896 5895 5894 5894 5894 5894 5893 5893 5893 5893 5895 5896 5897 5898 5899 5900 5900 5900 5901 5902 5902 5902 5903 5903 5904 5905 5905 5904 5904 5903 5904 5905
5905 5906 5906 5905 5902 5902 5901 5902 5904 5903 5903 5902 5898 5898 5898 5898 5898 5898 5896 5895 5895 5895 5895 5895 5895 5895 5895 5896 5897 5898 5899 5901 5901 5902 5902 5903 5904 5905 5905 5906 5906 5907 5907 5907 5907 5907 5906 5907 5908
5904 5908 5908 5906 5904 5902 5902 5902 5907 5905 5904 5901 5902 5899 5899 5900 5899 5899 5897 5896 5896 5896 5896 5896 5896 5897 5897 5898 5899 5900 5901 5902 5902 5903 5904 5904 5905 5907 5907 5908 5908 5908 5909 5908 5909 5910 5910 5910 5911
5908 5909 5908 5906 5907 5907 5906 5906 5910 5908 5907 5905 5904 5902 5900 5898 5900 5899 5898 5898 5897 5897 5896 5897 5897 5898 5899 5900 5901 5902 5903 5903 5903 5905 5906 5906 5907 5909 5909 5910 5910 5910 5910 5910 5911 5912 5912 5912 5912
5910 5910 5907 5907 5908 5910 5907 5907 5904 5906 5907 5907 5905 5904 5901 5901 5898 5899 5899 5899 5898 5898 5897 5898 5898 5899 5900 5901 5902 5903 5904 5905 5904 5905 5907 5907 5909 5910 5910 5911 5912 5913 5913 5914 5914 5914 5914 5914 5914
5911 5912 5910 5909 5907 5908 5906 5905 5906 5905 5908 5907 5905 5903 5902 5902 5900 5899 5899 5899 5898 5898 5898 5898 5899 5899 5901 5901 5902 5904 5904 5905 5906 5906 5907 5909 5910 5911 5911 5912 5914 5914 5915 5916 5916 5916 5915 5915 5916
5912 5912 5911 5911 5910 5908 5907 5906 5904 5906 5907 5908 5905 5902 5900 5899 5900 5899 5898 5899 5899 5898 5898 5898 5899 5900 5901 5901 5902 5904 5905 5905 5906 5907 5907 5909 5911 5912 5913 5914 5915 5916 5917 5917 5917 5918 5916 5916 5916
5913 5912 5911 5910 5912 5911 5913 5911 5908 5906 5905 5904 5904 5903 5899 5897 5897 5898 5898 5899 5899 5898 5898 5898 5899 5900 5901 5901 5902 5903 5905 5906 5906 5908 5908 5909 5912 5913 5914 5915 5916 5916 5917 5917 5917 5919 5917 5917 5917
5913 5912 5913 5912 5913 5913 5913 5912 5911 5908 5907 5906 5906 5904 5900 5897 5897 5897 5898 5898 5898 5897 5898 5899 5900 5900 5901 5902 5902 5904 5905 5906 5907 5908 5909 5910 5911 5912 5913 5915 5916 5917 5917 5917 5918 5918 5920 5919 5918
5914 5913 5911 5913 5914 5914 5913 5913 5912 5910 5908 5908 5909 5908 5904 5898 5896 5896 5898 5899 5898 5898 5898 5899 5900 5900 5901 5902 5903 5904 5905 5907 5907 5910 5911 5911 5911 5912 5914 5915 5915 5917 5918 5918 5918 5918 5919 5920 5919
5914 5912 5908 5911 5914 5913 5913 5914 5912 5910 5910 5910 5909 5909 5907 5904 5900 5896 5896 5898 5900 5899 5898 5898 5899 5899 5901 5902 5903 5904 5905 5906 5907 5909 5911 5912 5912 5913 5914 5915 5915 5916 5917 5918 5918 5918 5918 5919 5918
5912 5912 5909 5910 5912 5913 5913 5912 5911 5912 5910 5909 5909 5906 5907 5906 5904 5899 5896 5897 5898 5899 5899 5897 5898 5898 5900 5901 5903 5904 5905 5906 5907 5908 5911 5912 5913 5914 5914 5915 5915 5916 5917 5918 5919 5918 5918 5918 5917
5911 5911 5910 5912 5913 5913 5913 5914 5912 5911 5910 5910 5907 5908 5905 5905 5904 5901 5899 5896 5897 5896 5895 5896 5896 5897 5899 5901 5902 5903 5904 5906 5907 5908 5910 5911 5912 5912 5914 5915 5915 5916 5917 5918 5918 5918 5918 5918 5918
5911 5910 5910 5911 5910 5912 5913 5913 5910 5911 5910 5910 5909 5908 5907 5905 5904 5904 5902 5898 5895 5894 5892 5892 5892 5895 5898 5900 5901 5902 5903 5904 5906 5907 5908 5909 5911 5911 5912 5913 5915 5916 5917 5916 5916 5917 5918 5919 5917
5909 5909 5910 5908 5908 5910 5912 5913 5909 5911 5910 5910 5910 5908 5905 5905 5905 5903 5903 5901 5895 5892 5891 5885 5889 5891 5895 5898 5900 5900 5901 5903 5904 5905 5906 5907 5909 5911 5912 5912 5913 5913 5915 5916 5916 5916 5916 5917 5916
5907 5909 5911 5911 5910 5911 5908 5913 5912 5911 5911 5910 5910 5909 5907 5904 5904 5902 5900 5900 5896 5893 5891 5889 5889 5891 5894 5896 5899 5900 5900 5902 5903 5904 5905 5906 5907 5909 5911 5911 5912 5912 5913 5914 5915 5915 5915 5916 5913
5905 5908 5909 5909 5910 5908 5907 5908 5910 5911 5911 5911 5909 5910 5906 5904 5903 5900 5898 5897 5896 5893 5892 5890 5890 5892 5894 5897 5898 5899 5900 5902 5902 5904 5905 5907 5907 5907 5908 5909 5910 5911 5912 5913 5913 5913 5913 5914 5913
5902 5905 5907 5907 5905 5905 5906 5906 5908 5910 5909 5910 5910 5908 5907 5904 5902 5900 5898 5896 5895 5893 5891 5893 5895 5896 5897 5897 5898 5899 5900 5900 5902 5903 5904 5906 5906 5906 5906 5907 5908 5909 5909 5910 5911 5911 5911 5911 5913
5900 5902 5904 5905 5902 5902 5903 5904 5904 5907 5908 5908 5908 5908 5907 5905 5904 5901 5900 5898 5894 5894 5893 5894 5895 5896 5896 5897 5897 5898 5899 5900 5901 5902 5902 5904 5904 5905 5904 5905 5906 5906 5906 5907 5908 5908 5908 5909 5910
5898 5899 5898 5898 5899 5900 5901 5901 5901 5904 5906 5906 5907 5907 5905 5904 5904 5903 5902 5900 5897 5896 5895 5896 5895 5894 5894 5894 5894 5896 5898 5899 5899 5900 5901 5901 5901 5902 5903 5903 5904 5904 5903 5903 5904 5904 5905 5905 5907
5896 5892 5894 5894 5895 5897 5899 5898 5899 5901 5902 5904 5903 5903 5903 5902 5902 5902 5903 5901 5898 5895 5895 5896 5894 5893 5892 5891 5892 5893 5894 5897 5898 5898 5899 5900 5900 5900 5900 5901 5901 5902 5902 5902 5901 5901 5902 5902 5903
5893 5891 5892 5891 5891 5895 5896 5896 5898 5898 5898 5899 5902 5900 5899 5899 5899 5901 5902 5901 5898 5895 5895 5895 5893 5893 5891 5891 5892 5892 5892 5893 5894 5895 5895 5896 5897 5898 5898 5898 5898 5899 5899 5899 5899 5898 5899 5900 5900
5888 5888 5888 5888 5889 5892 5893 5893 5895 5896 5895 5898 5898 5897 5898 5895 5896 5899 5901 5900 5898 5896 5896 5895 5894 5894 5892 5891 5891 5891 5891 5891 5892 5892 5892 5893 5893 5894 5895 5896 5896 5896 5896 5896 5896 5896 5896 5897 5897
5879 5882 5883 5882 5884 5887 5888 5888 5892 5894 5893 5893 5893 5896 5896 5895 5896 5896 5900 5899 5896 5895 5896 5896 5895 5894 5893 5892 5891 5890 5890 5889 5889 5889 5890 5890 5891 5891 5892 5893 5893 5893 5892 5892 5893 5893 5893 5893 5893
5875 5877 5879 5876 5877 5880 5882 5885 5889 5891 5890 5890 5891 5892 5893 5896 5895 5895 5896 5897 5896 5895 5895 5895 5895 5894 5892 5889 5889 5888 5886 5886 5887 5888 5888 5887 5888 5888 5889 5889 5888 5888 5888 5888 5889 5889 5889 5889 5889
5870 5873 5874 5873 5872 5873 5877 5879 5882 5886 5887 5888 5887 5889 5889 5894 5892 5894 5894 5894 5895 5895 5894 5895 5895 5893 5890 5888 5887 5886 5886 5886 5886 5886 5886 5885 5886 5886 5886 5885 5883 5883 5880 5879 5884 5884 5884 5884 5885
5866 5866 5868 5868 5868 5868 5870 5874 5879 5882 5883 5885 5885 5888 5890 5891 5895 5892 5894 5895 5893 5894 5895 5896 5895 5892 5890 5888 5886 5885 5884 5884 5884 5884 5885 5884 5883 5883 5883 5881 5877 5880 5880 5881 5881 5881 5880 5880 5880
5860 5862 5861 5861 5864 5863 5863 5868 5873 5876 5878 5880 5881 5882 5887 5890 5891 5891 5891 5892 5892 5891 5894 5895 5894 5892 5891 5888 5887 5885 5883 5883 5883 5883 5883 5882 5881 5881 5880 5880 5880 5879 5880 5880 5879 5878 5877 5877 5877